CST,Max TemperatureF,Mean TemperatureF,Min TemperatureF,Max Dew PointF,MeanDew PointF,Min DewpointF,Max Humidity, Mean Humidity, Min Humidity, Max Sea Level PressureIn, Mean Sea Level PressureIn, Min Sea Level PressureIn, Max VisibilityMiles, Mean VisibilityMiles, Min VisibilityMiles, Max Wind SpeedMPH, Mean Wind SpeedMPH, Max Gust SpeedMPH,PrecipitationIn, CloudCover, Events, WindDirDegrees
2012-11-1,26,24,21,27,23,19,100,97,86,30.19,30.15,30.11,10,10,10,16,13,20,0.00,8,,49
2012-11-2,26,24,23,27,25,23,100,100,100,30.14,30.12,30.10,10,5,0,12,9,,1.94,6,Fog-Snow,114
2012-11-3,26,24,23,27,25,23,100,100,100,30.25,30.20,30.14,10,6,0,8,5,,0.16,8,Fog-Rain-Snow,42
2012-11-4,28,26,24,28,27,25,100,100,93,30.22,30.18,30.14,10,9,2,10,7,,0.00,8,Rain-Snow,173
2012-11-5,37,32,28,37,31,28,100,98,81,30.21,29.95,29.69,10,5,0,37,11,46,0.03,7,Fog-Rain,214
2012-11-6,41,38,35,36,33,32,93,82,70,30.04,29.92,29.73,10,10,10,34,24,46,0.00,5,,319
2012-11-7,41,34,26,37,33,27,100,94,81,30.04,29.87,29.66,10,10,10,24,9,32,0.00,3,,188
2012-11-8,44,34,23,39,30,23,100,94,80,30.25,30.02,29.68,10,10,2,31,19,43,0.00,7,Rain,2
2012-11-9,23,20,17,23,18,12,100,94,79,30.24,30.15,30.03,10,9,2,28,20,33,0.02,7,Snow,53
2012-11-10,19,17,15,19,19,16,100,100,100,30.01,29.79,29.65,10,2,0,31,18,41,19.07,3,Fog-Rain-Snow,17
2012-11-11,17,14,12,18,13,10,100,90,79,29.81,29.70,29.63,10,5,1,25,15,33,4.96,6,Snow,304
2012-11-12,19,14,8,10,6,0,100,78,46,30.04,29.98,29.81,10,9,2,26,18,32,0.38,2,Snow,285
2012-11-13,19,10,1,14,9,0,100,85,73,30.18,30.13,30.05,10,10,10,8,4,,0.00,4,,270
2012-11-14,32,21,10,32,22,9,100,99,86,30.15,30.01,29.93,10,6,0,21,9,,0.00,4,Fog-Rain,217
2012-11-15,28,19,10,25,16,10,100,91,74,30.38,30.28,30.02,10,10,10,26,15,33,0.00,0,,256
2012-11-16,32,22,12,30,20,12,100,96,74,30.30,30.09,29.98,10,9,2,18,9,16,0.00,0,,194
2012-11-17,33,24,14,32,23,14,100,100,93,30.08,30.03,29.99,10,5,0,10,3,,0.00,3,Fog-Rain-Snow,193
2012-11-18,35,29,23,36,29,23,100,100,100,30.00,29.90,29.84,10,2,0,15,8,33,0.03,4,Fog-Rain,194
2012-11-19,41,32,23,36,29,23,100,90,61,30.11,30.02,29.84,10,10,0,22,10,29,0.00,1,Fog-Rain,268
2012-11-20,37,32,26,36,31,25,100,93,86,30.08,29.90,29.82,10,10,10,18,12,,0.00,0,,212
2012-11-21,39,34,28,36,32,28,100,99,81,29.86,29.74,29.59,10,8,0,18,7,,0.00,4,Fog,37
2012-11-22,28,17,6,28,17,3,100,98,85,30.34,29.98,29.61,10,3,0,21,18,41,12.95,7,Fog-Rain-Snow,277
2012-11-23,6,0,-5,5,-1,-9,92,90,78,30.47,30.39,30.23,10,9,2,16,10,23,0.01,4,Rain-Snow,308
2012-11-24,28,14,0,28,16,-4,100,98,85,30.22,29.87,29.68,10,8,1,32,16,38,0.00,6,Rain-Snow,236
2012-11-25,24,12,0,25,10,-2,100,90,78,30.26,30.03,29.84,10,8,0,26,14,31,2.38,5,Rain-Snow,317
2012-11-26,26,10,-7,25,8,-11,100,91,78,30.29,30.18,30.07,10,9,0,18,9,23,0.17,5,Snow,245
2012-11-27,24,12,1,23,13,1,100,95,86,30.18,30.11,30.05,10,9,2,15,9,,0.35,6,Snow,327
2012-11-28,28,14,0,27,15,-2,100,96,85,30.18,30.08,29.99,10,8,0,25,14,32,0.00,6,Fog-Snow,279
2012-11-29,8,6,5,7,4,0,92,86,78,30.20,30.16,30.12,10,10,10,16,13,21,0.00,5,,69
2012-11-30,26,17,8,27,19,7,100,99,92,30.13,29.92,29.67,10,4,0,47,14,54,0.00,8,Fog-Snow,163